Voltar ao catálogo

FREGAT RB/CLUSTER 2

AtivoCiênciaHEO
NORAD 26106·PAYLOAD·🇷🇺 Russia

Lançado Mar 20, 2000 de Baikonur Cosmodrome

Loading…

Próximas Passagens (próximas 24 horas)

TLE

AtualizadoSource: Space-Track

Época: Sep 13, 2026, 19:40 UTC

1 26106U 00015A   26256.81965102  .00000018  00000-0  46237-4 0  9999
2 26106  65.1037  92.5455 5467407 258.8295  38.0407  4.61259870442296

Acompanhe FREGAT RB/CLUSTER 2 em tempo real com AllMySat

Download on the App Store